San Fermin Berria — EBVW — position and weather

sailwx.info

Track history (hours):
 
Tides and Currents Weather Stations Pressure Air Temp Water Temp Dewpoint Dewpoint Depression Visibility Wind Speed Wind Dir Waves Ship Positions

San Fermin Berria

Last reported at 2014-Oct-21 01:33 UTC. Time now 2014-Oct-21 03:58 UTC.
Position N 44°33' W 001°31'.

Length 30 m.

Type: Fishing. MMSI: 224114650.

Date/timePositionNaut miles runAvg speedWind from/ knotsBaromVisibWave heightAir tempDewpointWater temp
2014-Oct-21 01:33N 44°33' W 001°31'9 9.3
2014-Oct-21 00:33N 44°43' W 001°31'9 9.3
2014-Oct-20 23:33N 44°52' W 001°31'11 8.8
2014-Oct-20 22:20N 45°03' W 001°31'5 5.9
2014-Oct-20 21:33N 44°58' W 001°31'1110.8
2014-Oct-20 20:33N 44°47' W 001°32'1110.7
2014-Oct-20 19:33N 44°37' W 001°32'1110.7
2014-Oct-20 18:33N 44°26' W 001°31'18 9.1
2014-Oct-20 16:33N 44°08' W 001°38'1010.3
2014-Oct-20 15:33N 43°58' W 001°39'1010.1
2014-Oct-20 14:33N 43°48' W 001°41'12 9.9
2014-Oct-20 13:17N 43°36' W 001°43'1010.1
2014-Oct-20 12:16N 43°26' W 001°46'3 3.6
2014-Oct-20 11:33N 43°23' W 001°47'0 0.1
2014-Oct-20 10:33N 43°23' W 001°48'  
2014-Oct-17 08:19N 43°23' W 001°47'0 0.2
2014-Oct-17 07:27N 43°23' W 001°48'0 0.0
2014-Oct-17 06:33N 43°23' W 001°48'0 0.0
2014-Oct-17 05:28N 43°23' W 001°48'0 0.0
2014-Oct-17 04:32N 43°23' W 001°48'0 0.0
2014-Oct-17 03:31N 43°23' W 001°48'0 0.0
2014-Oct-17 02:25N 43°23' W 001°48'0 0.0
2014-Oct-17 01:32N 43°23' W 001°48'0 0.0
2014-Oct-17 00:31N 43°23' W 001°48'0 0.0
2014-Oct-16 23:33N 43°23' W 001°48'0 0.0
2014-Oct-16 22:33N 43°23' W 001°48'0 0.0
2014-Oct-16 21:33N 43°23' W 001°48'0 0.0
2014-Oct-16 20:33N 43°23' W 001°48'0 0.0
2014-Oct-16 19:33N 43°23' W 001°48'75 8.9
2014-Oct-16 11:08N 44°38' W 001°39'610.7
2014-Oct-16 10:34N 44°44' W 001°37'1110.6
2014-Oct-16 09:33N 44°54' W 001°35'1110.2
2014-Oct-16 08:29N 45°05' W 001°33'10 0.7
2014-Oct-15 18:15N 44°55' W 001°32'7 9.6
2014-Oct-15 17:33N 44°49' W 001°33'9 9.0
2014-Oct-15 16:34N 44°40' W 001°34'9 8.6
2014-Oct-15 15:34N 44°31' W 001°35'66 9.3
2014-Oct-15 08:27N 43°25' W 001°47'2 2.5
2014-Oct-15 07:33N 43°23' W 001°47'10 0.9
2014-Oct-14 19:18N 43°33' W 001°44'8 9.9
2014-Oct-14 18:30N 43°25' W 001°46'2 2.3
2014-Oct-14 17:28N 43°23' W 001°47'0 0.1
2014-Oct-14 16:33N 43°23' W 001°48'63 8.5
2014-Oct-14 09:07N 44°26' W 001°39'5 9.6
2014-Oct-14 08:33N 44°31' W 001°38'10 9.9
2014-Oct-14 07:34N 44°41' W 001°37'10 9.8
2014-Oct-14 06:33N 44°51' W 001°35'7 6.8
2014-Oct-14 05:33N 44°57' W 001°32'2 1.5
2014-Oct-14 04:31N 44°56' W 001°31'2 2.0
2014-Oct-14 03:34N 44°54' W 001°32'1 1.4
2014-Oct-14 02:33N 44°56' W 001°32'1 0.7
2014-Oct-14 01:32N 44°55' W 001°31'2 2.5
2014-Oct-14 00:33N 44°53' W 001°31'2 1.8
2014-Oct-13 23:33N 44°51' W 001°31'1 1.2
2014-Oct-13 22:33N 44°50' W 001°31'4 4.5
2014-Oct-13 21:33N 44°54' W 001°30'9 9.1
2014-Oct-13 20:34N 44°45' W 001°32'2 1.9
2014-Oct-13 19:33N 44°43' W 001°31'7 6.9
2014-Oct-13 18:34N 44°36' W 001°29'6410.2
2014-Oct-13 12:19N 43°33' W 001°44'8 9.8
2014-Oct-13 11:28N 43°25' W 001°46'  
Track history (hours):
 
Tides and Currents Weather Stations Pressure Air Temp Water Temp Dewpoint Dewpoint Depression Visibility Wind Speed Wind Dir Waves Ship Positions

San Fermin Berria

Last reported at 2014-Oct-21 01:33 UTC. Time now 2014-Oct-21 03:58 UTC.
Position N 44°33' W 001°31'.

Length 30 m.

Type: Fishing. MMSI: 224114650.

Date/timePositionNaut miles runAvg speedWind from/ knotsBaromVisibWave heightAir tempDewpointWater temp
2014-Oct-21 01:33N 44°33' W 001°31'9 9.3
2014-Oct-21 00:33N 44°43' W 001°31'9 9.3
2014-Oct-20 23:33N 44°52' W 001°31'11 8.8
2014-Oct-20 22:20N 45°03' W 001°31'5 5.9
2014-Oct-20 21:33N 44°58' W 001°31'1110.8
2014-Oct-20 20:33N 44°47' W 001°32'1110.7
2014-Oct-20 19:33N 44°37' W 001°32'1110.7
2014-Oct-20 18:33N 44°26' W 001°31'18 9.1
2014-Oct-20 16:33N 44°08' W 001°38'1010.3
2014-Oct-20 15:33N 43°58' W 001°39'1010.1
2014-Oct-20 14:33N 43°48' W 001°41'12 9.9
2014-Oct-20 13:17N 43°36' W 001°43'1010.1
2014-Oct-20 12:16N 43°26' W 001°46'3 3.6
2014-Oct-20 11:33N 43°23' W 001°47'0 0.1
2014-Oct-20 10:33N 43°23' W 001°48'  
2014-Oct-17 08:19N 43°23' W 001°47'0 0.2
2014-Oct-17 07:27N 43°23' W 001°48'0 0.0
2014-Oct-17 06:33N 43°23' W 001°48'0 0.0
2014-Oct-17 05:28N 43°23' W 001°48'0 0.0
2014-Oct-17 04:32N 43°23' W 001°48'0 0.0
2014-Oct-17 03:31N 43°23' W 001°48'0 0.0
2014-Oct-17 02:25N 43°23' W 001°48'0 0.0
2014-Oct-17 01:32N 43°23' W 001°48'0 0.0
2014-Oct-17 00:31N 43°23' W 001°48'0 0.0
2014-Oct-16 23:33N 43°23' W 001°48'0 0.0
2014-Oct-16 22:33N 43°23' W 001°48'0 0.0
2014-Oct-16 21:33N 43°23' W 001°48'0 0.0
2014-Oct-16 20:33N 43°23' W 001°48'0 0.0
2014-Oct-16 19:33N 43°23' W 001°48'75 8.9
2014-Oct-16 11:08N 44°38' W 001°39'610.7
2014-Oct-16 10:34N 44°44' W 001°37'1110.6
2014-Oct-16 09:33N 44°54' W 001°35'1110.2
2014-Oct-16 08:29N 45°05' W 001°33'10 0.7
2014-Oct-15 18:15N 44°55' W 001°32'7 9.6
2014-Oct-15 17:33N 44°49' W 001°33'9 9.0
2014-Oct-15 16:34N 44°40' W 001°34'9 8.6
2014-Oct-15 15:34N 44°31' W 001°35'66 9.3
2014-Oct-15 08:27N 43°25' W 001°47'2 2.5
2014-Oct-15 07:33N 43°23' W 001°47'10 0.9
2014-Oct-14 19:18N 43°33' W 001°44'8 9.9
2014-Oct-14 18:30N 43°25' W 001°46'2 2.3
2014-Oct-14 17:28N 43°23' W 001°47'0 0.1
2014-Oct-14 16:33N 43°23' W 001°48'63 8.5
2014-Oct-14 09:07N 44°26' W 001°39'5 9.6
2014-Oct-14 08:33N 44°31' W 001°38'10 9.9
2014-Oct-14 07:34N 44°41' W 001°37'10 9.8
2014-Oct-14 06:33N 44°51' W 001°35'7 6.8
2014-Oct-14 05:33N 44°57' W 001°32'2 1.5
2014-Oct-14 04:31N 44°56' W 001°31'2 2.0
2014-Oct-14 03:34N 44°54' W 001°32'1 1.4
2014-Oct-14 02:33N 44°56' W 001°32'1 0.7
2014-Oct-14 01:32N 44°55' W 001°31'2 2.5
2014-Oct-14 00:33N 44°53' W 001°31'2 1.8
2014-Oct-13 23:33N 44°51' W 001°31'1 1.2
2014-Oct-13 22:33N 44°50' W 001°31'4 4.5
2014-Oct-13 21:33N 44°54' W 001°30'9 9.1
2014-Oct-13 20:34N 44°45' W 001°32'2 1.9
2014-Oct-13 19:33N 44°43' W 001°31'7 6.9
2014-Oct-13 18:34N 44°36' W 001°29'6410.2
2014-Oct-13 12:19N 43°33' W 001°44'8 9.8
2014-Oct-13 11:28N 43°25' W 001°46'  

Dump ship's entire track history